sat.trackr.live / text

‹ back to catalog

SSOT

NORAD 38011 · 2011-076E

PAYLOAD ACTIVE UNKNOWN

§ Identity

Operator
Country
CHLE
Launch date
2011-12-17
Launch site
FRGUI
Launch vehicle
Mass (kg)
RCS (m²)
0.73

External: N2YO · Heavens-Above · Gunter

§ Orbital elements

Epoch: 2026-09-10T04:34:11.721216Z

Period
97.12 min
Inclination
97.7996°
Eccentricity
0.0001367
Mean motion
14.82650255 rev/d
Perigee alt
620.0 km
Apogee alt
621.9 km
Semi-major
6,999.1 km
B*
7.0451e-5
RAAN
311.5378°
Arg perigee
91.2332°
Mean anomaly
343.6706°
Rev number
79,697

§ Raw data

SSOT1 38011U 11076E   26253.19041344  .00000516  00000+0  70451-4 0  99942 38011  97.7996 311.5378 0001367  91.2332 343.6706 14.82650255796972

JSON: /api/v1/satellites/38011 · /tle

For live sub-satellite position, see the globe view (requires WebGL).

§ Visibility from observer

Set your observer location to see the next 7 days of passes ≥ 10°. The values pass through the URL so the page stays shareable.

No JS? Fill the form by hand. The geolocation button needs JavaScript.